EW7774 Weather Reports


Display with metric or nautical units.
time (UTC)temp
F
wind
direction
speed
MPH
gust
MPH
rain 1hr
in
rain 24hr
in
rain mn
in
humidity
%
barometer
mb
20260906202843 79 82 0.0 4.0 0.00 0.00 0.00 59 1014.2
20260906202525 78 0 0.0 0.0 0.00 0.00 0.00 57 1014.9
20260906202318 79 9 0.0 0.0 0.00 0.00 0.00 58 1014.2
20260906202028 78 0 0.0 7.0 0.00 0.00 0.00 58 1014.9
20260906201847 79 5 0.0 6.0 0.00 0.00 0.00 57 1014.3
20260906201557 78 0 0.0 7.0 0.00 0.00 0.00 56 1014.9
20260906201319 79 77 1.0 6.0 0.00 0.00 0.00 57 1014.3
20260906201025 78 39 0.0 3.0 0.00 0.00 0.00 57 1015.0
20260906200812 79 113 0.0 2.0 0.00 0.00 0.00 61 1014.3
20260906200525 78 0 0.0 2.0 0.00 0.00 0.00 61 1015.0
20260906200329 78 108 0.0 2.0 0.00 0.00 0.00 61 1014.3
20260906200047 78 0 0.0 5.0 0.00 0.00 0.00 60 1014.9
20260906195822 78 91 0.0 5.0 0.00 0.00 0.00 58 1014.2
20260906195525 78 0 0.0 6.0 0.00 0.00 0.00 58 1015.0
20260906195339 78 48 0.0 5.0 0.00 0.00 0.00 60 1014.3
20260906195024 78 0 0.0 6.0 0.00 0.00 0.00 58 1015.0
20260906194831 78 86 0.0 5.0 0.00 0.00 0.00 60 1014.3
20260906194557 78 0 0.0 6.0 0.00 0.00 0.00 59 1014.9
20260906194328 78 80 0.0 5.0 0.00 0.00 0.00 59 1014.3
20260906194025 78 0 0.0 6.0 0.00 0.00 0.00 60 1014.9
20260906193823 79 81 0.0 5.0 0.00 0.00 0.00 61 1014.4
20260906193525 78 0 0.0 6.0 0.00 0.00 0.00 59 1015.0
20260906193321 79 67 1.0 5.0 0.00 0.00 0.00 58 1014.3
20260906193104 78 0 0.0 5.0 0.00 0.00 0.00 58 1015.0
20260906192816 79 111 1.0 5.0 0.00 0.00 0.00 58 1014.4
20260906192525 78 0 0.0 1.0 0.00 0.00 0.00 58 1015.0
20260906192329 79 22 0.0 0.0 0.00 0.00 0.00 59 1014.3
20260906192026 79 0 0.0 3.0 0.00 0.00 0.00 58 1014.9
20260906191822 79 22 0.0 3.0 0.00 0.00 0.00 57 1014.3
20260906191546 79 0 0.0 3.0 0.00 0.00 0.00 58 1015.0
20260906191334 79 22 1.0 3.0 0.00 0.00 0.00 59 1014.4
20260906191024 79 0 0.0 2.0 0.00 0.00 0.00 56 1014.9
20260906190826 79 77 0.0 2.0 0.00 0.00 0.00 57 1014.3
20260906190525 79 0 0.0 3.0 0.00 0.00 0.00 55 1015.0
20260906190322 79 50 0.0 3.0 0.00 0.00 0.00 55 1014.5
20260906190043 79 0 0.0 5.0 0.00 0.00 0.00 56 1015.1
20260906185815 79 44 0.0 5.0 0.00 0.00 0.00 58 1014.5
20260906185526 79 107 0.0 5.0 0.00 0.00 0.00 58 1015.2
20260906185312 79 11 1.0 5.0 0.00 0.00 0.00 60 1014.6
20260906185024 79 102 0.0 4.0 0.00 0.00 0.00 60 1015.2
20260906184827 79 84 1.0 4.0 0.00 0.00 0.00 59 1014.5
20260906184549 78 0 0.0 4.0 0.00 0.00 0.00 59 1015.2
20260906184319 79 50 0.0 3.0 0.00 0.00 0.00 59 1014.6
20260906184024 78 0 0.0 3.0 0.00 0.00 0.00 59 1015.3
20260906183831 78 106 0.0 1.0 0.00 0.00 0.00 58 1014.7
20260906183526 78 0 0.0 1.0 0.00 0.00 0.00 59 1015.4
20260906183328 79 100 0.0 1.0 0.00 0.00 0.00 58 1014.8
20260906183046 78 0 0.0 3.0 0.00 0.00 0.00 60 1015.5
20260906182821 79 100 0.0 3.0 0.00 0.00 0.00 61 1014.8
20260906182529 78 0 0.0 3.0 0.00 0.00 0.00 58 1015.4
20260906182333 79 91 0.0 3.0 0.00 0.00 0.00 57 1014.7
20260906182025 78 0 0.0 3.0 0.00 0.00 0.00 60 1015.4
20260906181826 79 163 0.0 3.0 0.00 0.00 0.00 59 1014.8
20260906181605 78 0 0.0 2.0 0.00 0.00 0.00 60 1015.4
20260906181340 79 59 0.0 1.0 0.00 0.00 0.00 60 1014.8
20260906181024 78 0 0.0 4.0 0.00 0.00 0.00 56 1015.4
20260906180853 79 61 0.0 4.0 0.00 0.00 0.00 58 1014.8
20260906180529 78 0 0.0 4.0 0.00 0.00 0.00 58 1015.5
20260906180326 79 76 0.0 4.0 0.00 0.00 0.00 59 1014.9
20260906180052 78 0 0.0 2.0 0.00 0.00 0.00 61 1015.5
20260906175841 79 91 0.0 2.0 0.00 0.00 0.00 62 1014.9
20260906175525 78 0 0.0 2.0 0.00 0.00 0.00 61 1015.5
20260906175314 79 44 0.0 2.0 0.00 0.00 0.00 62 1014.9
20260906175028 78 0 0.0 3.0 0.00 0.00 0.00 63 1015.6
20260906174830 79 128 0.0 3.0 0.00 0.00 0.00 63 1015.1
20260906174550 78 0 0.0 3.0 0.00 0.00 0.00 62 1015.7
20260906174324 79 129 1.0 3.0 0.00 0.00 0.00 63 1015.0
20260906174027 79 0 0.0 2.0 0.00 0.00 0.00 63 1015.7
20260906173822 79 16 0.0 2.0 0.00 0.00 0.00 62 1015.2
20260906173529 79 0 0.0 2.0 0.00 0.00 0.00 61 1015.7
20260906173315 80 16 0.0 2.0 0.00 0.00 0.00 59 1015.2
20260906173044 79 0 0.0 1.0 0.00 0.00 0.00 58 1015.7
20260906172831 80 108 0.0 1.0 0.00 0.00 0.00 59 1015.2
20260906172526 79 0 0.0 0.0 0.00 0.00 0.00 60 1015.7
20260906172325 80 75 0.0 0.0 0.00 0.00 0.00 61 1015.3
20260906172025 80 0 0.0 4.0 0.00 0.00 0.00 62 1015.7
20260906171818 80 75 0.0 4.0 0.00 0.00 0.00 61 1015.3
20260906171554 80 0 0.0 4.0 0.00 0.00 0.00 61 1015.8
20260906171330 80 63 1.0 4.0 0.00 0.00 0.00 61 1015.3
20260906171026 79 0 0.0 3.0 0.00 0.00 0.00 66 1015.7
20260906170825 80 79 0.0 3.0 0.00 0.00 0.00 61 1015.2
20260906170524 79 0 0.0 3.0 0.00 0.00 0.00 63 1015.8
20260906170338 80 11 0.0 3.0 0.00 0.00 0.00 60 1015.3
20260906170103 79 0 0.0 7.0 0.00 0.00 0.00 58 1015.7
20260906165830 80 19 0.0 6.0 0.00 0.00 0.00 60 1015.2
20260906165523 80 43 0.0 7.0 0.00 0.00 0.00 59 1015.8
20260906165328 81 211 0.0 6.0 0.00 0.00 0.00 60 1015.2
20260906165034 80 0 0.0 6.0 0.00 0.00 0.00 58 1015.8
20260906164820 81 87 0.0 3.0 0.00 0.00 0.00 60 1015.2
20260906164546 80 0 0.0 3.0 0.00 0.00 0.00 60 1015.8
20260906164314 81 61 0.0 3.0 0.00 0.00 0.00 60 1015.3
20260906164027 80 0 0.0 5.0 0.00 0.00 0.00 63 1015.8
20260906163830 80 100 0.0 5.0 0.00 0.00 0.00 61 1015.3
20260906163525 80 121 0.0 5.0 0.00 0.00 0.00 61 1015.9
20260906163344 80 99 1.0 5.0 0.00 0.00 0.00 61 1015.3
20260906163045 79 97 0.0 4.0 0.00 0.00 0.00 64 1015.8
20260906162849 79 57 0.0 4.0 0.00 0.00 0.00 64 1015.4
20260906162528 79 0 0.0 3.0 0.00 0.00 0.00 63 1015.9
20260906162322 79 7 0.0 3.0 0.00 0.00 0.00 64 1015.4
20260906162025 78 0 0.0 3.0 0.00 0.00 0.00 62 1015.9
20260906161815 79 7 0.0 3.0 0.00 0.00 0.00 62 1015.4
20260906161543 79 0 0.0 2.0 0.00 0.00 0.00 62 1016.0
20260906161328 79 6 0.0 2.0 0.00 0.00 0.00 65 1015.5
20260906161024 78 0 0.0 2.0 0.00 0.00 0.00 65 1016.1
20260906160822 79 9 0.0 2.0 0.00 0.00 0.00 62 1015.6
20260906160524 79 0 0.0 2.0 0.00 0.00 0.00 62 1016.1
20260906160315 79 84 0.0 1.0 0.00 0.00 0.00 65 1015.5
20260906160051 79 0 0.0 2.0 0.00 0.00 0.00 64 1016.0
20260906155830 79 206 0.0 2.0 0.00 0.00 0.00 63 1015.5
20260906155527 79 0 0.0 2.0 0.00 0.00 0.00 63 1016.0
20260906155324 79 59 0.0 2.0 0.00 0.00 0.00 67 1015.6
20260906155026 78 0 0.0 4.0 0.00 0.00 0.00 64 1016.1
20260906154817 79 52 0.0 4.0 0.00 0.00 0.00 61 1015.5
20260906154605 78 0 0.0 4.0 0.00 0.00 0.00 63 1016.1
20260906154316 79 25 1.0 4.0 0.00 0.00 0.00 62 1015.6
20260906154027 79 66 0.0 3.0 0.00 0.00 0.00 60 1016.1
20260906153830 79 86 0.0 3.0 0.00 0.00 0.00 63 1015.7
20260906153525 79 0 0.0 4.0 0.00 0.00 0.00 62 1016.1
20260906153327 79 88 0.0 4.0 0.00 0.00 0.00 63 1015.6
20260906153045 79 0 0.0 4.0 0.00 0.00 0.00 65 1016.3
20260906152841 79 50 1.0 4.0 0.00 0.00 0.00 67 1015.7
20260906152526 78 0 0.0 6.0 0.00 0.00 0.00 67 1016.3
20260906152334 78 89 0.0 5.0 0.00 0.00 0.00 66 1015.7
20260906152027 78 0 0.0 6.0 0.00 0.00 0.00 67 1016.3
20260906151827 78 70 0.0 5.0 0.00 0.00 0.00 66 1015.7
20260906151555 77 0 0.0 2.0 0.00 0.00 0.00 66 1016.2
20260906151320 78 69 0.0 2.0 0.00 0.00 0.00 67 1015.6
20260906151032 77 0 0.0 2.0 0.00 0.00 0.00 66 1016.1
20260906150834 78 50 0.0 2.0 0.00 0.00 0.00 68 1015.5
20260906150525 77 0 0.0 5.0 0.00 0.00 0.00 67 1016.1
20260906150347 78 160 0.0 5.0 0.00 0.00 0.00 66 1015.5
20260906150050 77 0 0.0 5.0 0.00 0.00 0.00 67 1016.1
20260906145821 77 69 1.0 5.0 0.00 0.00 0.00 66 1015.4
20260906145528 76 0 0.0 5.0 0.00 0.00 0.00 68 1016.0
20260906145316 77 68 0.0 4.0 0.00 0.00 0.00 68 1015.4
20260906145029 76 0 0.0 5.0 0.00 0.00 0.00 68 1015.9
20260906144831 76 95 1.0 4.0 0.00 0.00 0.00 72 1015.4
20260906144603 75 0 0.0 4.0 0.00 0.00 0.00 71 1016.0
20260906144325 75 82 0.0 5.0 0.00 0.00 0.00 72 1015.3
20260906144027 74 0 0.0 4.0 0.00 0.00 0.00 73 1015.9
20260906143819 74 59 0.0 5.0 0.00 0.00 0.00 72 1015.3
20260906143525 74 0 0.0 4.0 0.00 0.00 0.00 73 1015.8
20260906143312 74 200 0.0 1.0 0.00 0.00 0.00 73 1015.3
20260906143044 74 0 0.0 4.0 0.00 0.00 0.00 72 1015.9
20260906142830 74 51 0.0 4.0 0.00 0.00 0.00 72 1015.3
20260906142528 74 0 0.0 4.0 0.00 0.00 0.00 73 1015.9
20260906142346 74 83 0.0 4.0 0.00 0.00 0.00 76 1015.3
20260906142029 73 0 0.0 4.0 0.00 0.00 0.00 75 1015.9
20260906141821 73 87 0.0 4.0 0.00 0.00 0.00 77 1015.4
20260906141551 73 0 0.0 1.0 0.00 0.00 0.00 76 1015.9
20260906141335 73 57 0.0 1.0 0.00 0.00 0.00 76 1015.4
20260906141028 72 0 0.0 1.0 0.00 0.00 0.00 76 1015.9
20260906140828 73 58 0.0 1.0 0.00 0.00 0.00 77 1015.4
20260906140525 72 79 0.0 1.0 0.00 0.00 0.00 76 1015.9
20260906140321 72 86 0.0 1.0 0.00 0.00 0.00 79 1015.4
20260906140046 71 0 0.0 1.0 0.00 0.00 0.00 77 1015.9
20260906135815 71 30 0.0 1.0 0.00 0.00 0.00 79 1015.4
20260906135525 71 0 0.0 1.0 0.00 0.00 0.00 79 1015.9
20260906135349 71 115 0.0 0.0 0.00 0.00 0.00 81 1015.3
20260906135029 70 0 0.0 2.0 0.00 0.00 0.00 81 1015.9
20260906134821 70 84 0.0 2.0 0.00 0.00 0.00 80 1015.4
20260906134545 69 0 0.0 2.0 0.00 0.00 0.00 80 1015.9
20260906134315 70 83 0.0 2.0 0.00 0.00 0.00 81 1015.4
20260906134028 69 0 0.0 2.0 0.00 0.00 0.00 80 1015.9
20260906133829 69 58 0.0 0.0 0.00 0.00 0.00 82 1015.4
20260906133525 69 0 0.0 0.0 0.00 0.00 0.00 83 1015.9
20260906133321 69 58 0.0 0.0 0.00 0.00 0.00 84 1015.3
20260906133103 68 0 0.0 0.0 0.00 0.00 0.00 83 1015.8
20260906132835 69 50 0.0 0.0 0.00 0.00 0.00 82 1015.2
20260906132525 68 0 0.0 0.0 0.00 0.00 0.00 82 1015.7
20260906132316 68 58 0.0 0.0 0.00 0.00 0.00 84 1015.1
20260906132025 67 0 0.0 3.0 0.00 0.00 0.00 84 1015.8
20260906131812 68 73 0.0 3.0 0.00 0.00 0.00 86 1015.2
20260906131542 67 0 0.0 3.0 0.00 0.00 0.00 84 1015.8
20260906131329 67 80 0.0 3.0 0.00 0.00 0.00 84 1015.2
20260906131025 66 0 0.0 3.0 0.00 0.00 0.00 85 1015.8
20260906130822 67 116 0.0 1.0 0.00 0.00 0.00 86 1015.2
20260906130527 66 0 0.0 0.0 0.00 0.00 0.00 86 1015.8
20260906130317 66 63 0.0 0.0 0.00 0.00 0.00 87 1015.2
20260906130051 66 0 0.0 0.0 0.00 0.00 0.00 87 1015.8
20260906125852 66 88 0.0 0.0 0.00 0.00 0.00 87 1015.2
20260906125525 65 0 0.0 1.0 0.00 0.00 0.00 87 1015.8
20260906125324 65 71 0.0 1.0 0.00 0.00 0.00 89 1015.2
20260906125027 65 0 0.0 1.0 0.00 0.00 0.00 89 1015.8
20260906124818 65 73 0.0 1.0 0.00 0.00 0.00 89 1015.2
20260906124552 64 0 0.0 0.0 0.00 0.00 0.00 89 1015.8
20260906124315 64 90 0.0 0.0 0.00 0.00 0.00 91 1015.3
20260906124026 63 0 0.0 0.0 0.00 0.00 0.00 90 1015.8
20260906123823 64 97 0.0 0.0 0.00 0.00 0.00 91 1015.2
20260906123524 63 0 0.0 0.0 0.00 0.00 0.00 92 1015.7
20260906123318 63 22 0.0 0.0 0.00 0.00 0.00 93 1015.1
20260906123046 62 0 0.0 4.0 0.00 0.00 0.00 93 1015.7
20260906122834 63 66 0.0 4.0 0.00 0.00 0.00 94 1015.0
20260906122524 62 0 0.0 4.0 0.00 0.00 0.00 93 1015.6
20260906122327 62 65 0.0 4.0 0.00 0.00 0.00 95 1015.0
20260906122024 61 0 0.0 4.0 0.00 0.00 0.00 94 1015.5
20260906121820 62 90 0.0 0.0 0.00 0.00 0.00 96 1015.0
20260906121544 61 0 0.0 0.0 0.00 0.00 0.00 96 1015.6
20260906121318 61 77 0.0 0.0 0.00 0.00 0.00 96 1014.9
20260906121026 60 0 0.0 0.0 0.00 0.00 0.00 96 1015.4
20260906120814 61 77 0.0 0.0 0.00 0.00 0.00 96 1014.8
20260906120528 60 0 0.0 0.0 0.00 0.00 0.00 96 1015.3
20260906120312 60 77 0.0 0.0 0.00 0.00 0.00 96 1014.8
20260906120049 60 0 0.0 0.0 0.00 0.00 0.00 96 1015.4
20260906115850 60 77 0.0 0.0 0.00 0.00 0.00 96 1014.7
20260906115525 59 0 0.0 0.0 0.00 0.00 0.00 96 1015.3
20260906115342 60 77 0.0 0.0 0.00 0.00 0.00 96 1014.7
20260906115024 59 0 0.0 0.0 0.00 0.00 0.00 96 1015.3
20260906114837 60 77 0.0 0.0 0.00 0.00 0.00 96 1014.6
20260906114557 59 0 0.0 0.0 0.00 0.00 0.00 96 1015.1
20260906114350 59 0.0 0.0 0.00 0.00 0.00 96 1014.6
20260906114022 59 0 0.0 0.0 0.00 0.00 0.00 95 1015.2
20260906113846 59 0.0 0.0 0.00 0.00 0.00 96 1014.6
20260906113525 59 0 0.0 0.0 0.00 0.00 0.00 95 1015.1
20260906113342 59 0.0 0.0 0.00 0.00 0.00 95 1014.6
20260906113049 58 0 0.0 0.0 0.00 0.00 0.00 95 1015.2
20260906112524 58 0.0 0.0 0.00 0.00 0.00 95 1015.1
20260906112321 59 0.0 0.0 0.00 0.00 0.00 95 1014.5
20260906112027 58 0.0 0.0 0.00 0.00 0.00 95 1015.1
20260906111819 59 0.0 0.0 0.00 0.00 0.00 95 1014.5
20260906111544 58 0.0 0.0 0.00 0.00 0.00 95 1015.1
20260906111333 59 0.0 0.0 0.00 0.00 0.00 95 1014.5
20260906111025 58 0.0 0.0 0.00 0.00 0.00 94 1015.0
20260906110828 59 0.0 0.0 0.00 0.00 0.00 95 1014.4
20260906110525 58 0.0 0.0 0.00 0.00 0.00 94 1015.0
20260906110325 59 0.0 0.0 0.00 0.00 0.00 95 1014.5
20260906110045 58 0.0 0.0 0.00 0.00 0.00 94 1015.0
20260906105822 59 0.0 0.0 0.00 0.00 0.00 95 1014.3
20260906105524 58 0.0 0.0 0.00 0.00 0.00 94 1014.7
20260906105321 59 0.0 0.0 0.00 0.00 0.00 95 1014.2
20260906105024 58 0.0 0.0 0.00 0.00 0.00 94 1014.7
20260906104816 59 0.0 0.0 0.00 0.00 0.00 95 1014.1
20260906104558 58 0.0 0.0 0.00 0.00 0.00 94 1014.6
20260906104313 59 0.0 0.0 0.00 0.00 0.00 95 1014.1
20260906104023 58 0.0 0.0 0.00 0.00 0.00 94 1014.5
20260906103827 59 0.0 0.0 0.00 0.00 0.00 95 1014.0
20260906103525 58 0.0 0.0 0.00 0.00 0.00 94 1014.4
20260906103323 59 0.0 0.0 0.00 0.00 0.00 95 1013.9
20260906103045 58 0.0 0.0 0.00 0.00 0.00 94 1014.3
20260906102816 59 0.0 0.0 0.00 0.00 0.00 95 1013.9
20260906102527 58 0.0 0.0 0.00 0.00 0.00 94 1014.3
20260906102328 59 0.0 0.0 0.00 0.00 0.00 94 1013.8
20260906102027 58 0.0 0.0 0.00 0.00 0.00 94 1014.3
20260906101842 59 0.0 0.0 0.00 0.00 0.00 94 1013.7
20260906101543 58 0.0 0.0 0.00 0.00 0.00 94 1014.2
20260906101331 59 0.0 0.0 0.00 0.00 0.00 94 1013.6
20260906101025 58 0.0 0.0 0.00 0.00 0.00 94 1014.2
20260906100829 59 0.0 0.0 0.00 0.00 0.00 94 1013.6
20260906100524 59 0.0 0.0 0.00 0.00 0.00 93 1014.2
20260906100340 59 0.0 0.0 0.00 0.00 0.00 94 1013.5
20260906100043 59 0.0 0.0 0.00 0.00 0.00 94 1014.0
20260906095814 59 0.0 0.0 0.00 0.00 0.00 94 1013.5
20260906095528 59 0.0 0.0 0.00 0.00 0.00 94 1014.0
20260906095330 59 0.0 0.0 0.00 0.00 0.00 94 1013.4
20260906095024 59 0.0 0.0 0.00 0.00 0.00 94 1013.8
20260906094826 59 0.0 0.0 0.00 0.00 0.00 94 1013.3
20260906094605 59 0.0 0.0 0.00 0.00 0.00 94 1013.9
20260906094323 59 0.0 0.0 0.00 0.00 0.00 94 1013.3
20260906094030 59 0.0 0.0 0.00 0.00 0.00 94 1013.8
20260906093819 59 0.0 0.0 0.00 0.00 0.00 94 1013.3
20260906093524 59 0.0 0.0 0.00 0.00 0.00 93 1013.9
20260906093333 59 0.0 0.0 0.00 0.00 0.00 94 1013.4
20260906093110 59 0.0 0.0 0.00 0.00 0.00 93 1013.9
20260906092826 60 0.0 0.0 0.00 0.00 0.00 94 1013.3
20260906092524 59 0.0 0.0 0.00 0.00 0.00 93 1013.8
20260906092322 60 0.0 0.0 0.00 0.00 0.00 94 1013.2
20260906092026 59 0.0 0.0 0.00 0.00 0.00 93 1013.8
20260906091815 60 0.0 0.0 0.00 0.00 0.00 94 1013.2
20260906091544 59 0.0 0.0 0.00 0.00 0.00 93 1013.7
20260906091329 60 0.0 0.0 0.00 0.00 0.00 94 1013.1
20260906091024 59 0.0 0.0 0.00 0.00 0.00 93 1013.6
20260906090822 60 0.0 0.0 0.00 0.00 0.00 94 1013.1
20260906090524 59 0.0 0.0 0.00 0.00 0.00 93 1013.6
20260906090316 60 0.0 0.0 0.00 0.00 0.00 94 1013.0
20260906090052 59 0.0 0.0 0.00 0.00 0.00 93 1013.5
20260906085829 60 0.0 0.0 0.00 0.00 0.00 94 1013.0
20260906085529 60 0.0 0.0 0.00 0.00 0.00 93 1013.5
20260906085327 60 0.0 0.0 0.00 0.00 0.00 93 1012.9
20260906085024 60 0.0 0.0 0.00 0.00 0.00 93 1013.5
20260906084824 60 0.0 0.0 0.00 0.00 0.00 93 1012.9
20260906084545 60 0.0 0.0 0.00 0.00 0.00 93 1013.4
20260906084320 60 0.0 0.0 0.00 0.00 0.00 94 1012.9
20260906084025 60 0.0 0.0 0.00 0.00 0.00 93 1013.4
20260906083815 60 0.0 0.0 0.00 0.00 0.00 94 1012.9
20260906083524 60 0.0 0.0 0.00 0.00 0.00 93 1013.4
20260906083334 60 0.0 0.0 0.00 0.00 0.00 94 1012.9
20260906083048 60 0.0 0.0 0.00 0.00 0.00 93 1013.4
20260906082827 60 0.0 0.0 0.00 0.00 0.00 94 1012.9
20260906082524 60 0.0 0.0 0.00 0.00 0.00 93 1013.4
20260906082321 60 0.0 0.0 0.00 0.00 0.00 93 1012.9
20260906082033 60 0.0 0.0 0.00 0.00 0.00 93 1013.5
20260906081813 61 0.0 0.0 0.00 0.00 0.00 93 1012.9
20260906081545 60 0.0 0.0 0.00 0.00 0.00 93 1013.5
20260906081329 61 0.0 0.0 0.00 0.00 0.00 93 1012.9
20260906081025 60 0.0 0.0 0.00 0.00 0.00 93 1013.4
20260906080827 61 0.0 0.0 0.00 0.00 0.00 93 1012.8
20260906080525 60 0.0 0.0 0.00 0.00 0.00 93 1013.4
20260906080323 61 0.0 0.0 0.00 0.00 0.00 93 1012.8
20260906080044 60 0.0 0.0 0.00 0.00 0.00 93 1013.3
20260906075819 61 0.0 0.0 0.00 0.00 0.00 93 1012.7
20260906075524 60 0.0 0.0 0.00 0.00 0.00 93 1013.3
20260906075316 61 0.0 0.0 0.00 0.00 0.00 94 1012.7
20260906075025 61 0.0 0.0 0.00 0.00 0.00 93 1013.3
20260906074849 61 0.0 0.0 0.00 0.00 0.00 94 1012.8
20260906074553 61 0.0 0.0 0.00 0.00 0.00 93 1013.3
20260906074321 61 0.0 0.0 0.00 0.00 0.00 94 1012.7
20260906074025 61 0.0 0.0 0.00 0.00 0.00 93 1013.2
20260906073816 61 0.0 0.0 0.00 0.00 0.00 94 1012.7
20260906073525 61 0.0 0.0 0.00 0.00 0.00 93 1013.2
20260906073331 61 0.0 0.0 0.00 0.00 0.00 93 1012.6
20260906073045 61 0.0 0.0 0.00 0.00 0.00 93 1013.2
20260906072845 61 0.0 0.0 0.00 0.00 0.00 93 1012.6
20260906072526 61 0.0 0.0 0.00 0.00 0.00 93 1013.1
20260906072318 62 0.0 0.0 0.00 0.00 0.00 94 1012.6
20260906072024 61 0.0 0.0 0.00 0.00 0.00 93 1013.2
20260906071818 62 0.0 0.0 0.00 0.00 0.00 93 1012.6
20260906071544 61 0.0 0.0 0.00 0.00 0.00 93 1013.1
20260906071346 62 0.0 0.0 0.00 0.00 0.00 94 1012.6
20260906071025 61 0.0 0.0 0.00 0.00 0.00 93 1013.1
20260906070826 62 0.0 0.0 0.00 0.00 0.00 94 1012.6
20260906070525 61 0.0 0.0 0.00 0.00 0.00 93 1013.1
20260906070321 62 0.0 0.0 0.00 0.00 0.00 93 1012.6
20260906070044 61 0.0 0.0 0.00 0.00 0.00 93 1013.1
20260906065817 62 0.0 0.0 0.00 0.00 0.00 94 1012.6
20260906065524 61 0.0 0.0 0.00 0.00 0.00 93 1013.1
20260906065331 62 0.0 0.0 0.00 0.00 0.00 93 1012.6
20260906065023 61 0.0 0.0 0.00 0.00 0.00 93 1013.1
20260906064826 62 0.0 0.0 0.00 0.00 0.00 93 1012.5
20260906064550 62 0.0 0.0 0.00 0.00 0.00 93 1013.1
20260906064323 62 0.0 0.0 0.00 0.00 0.00 93 1012.6
20260906064028 62 0.0 0.0 0.00 0.00 0.00 93 1013.1
20260906063819 62 0.0 0.0 0.00 0.00 0.00 93 1012.5
20260906063524 62 0.0 0.0 0.00 0.00 0.00 93 1013.1
20260906063315 62 0.0 0.0 0.00 0.00 0.00 93 1012.5
20260906063049 62 0.0 0.0 0.00 0.00 0.00 93 1013.1
20260906062828 62 0.0 0.0 0.00 0.00 0.00 93 1012.6
20260906062528 62 0.0 0.0 0.00 0.00 0.00 93 1013.2
20260906062325 63 0.0 0.0 0.00 0.00 0.00 93 1012.7
20260906062044 62 0.0 0.0 0.00 0.00 0.00 93 1013.3
20260906061817 63 0.0 0.0 0.00 0.00 0.00 93 1012.6
20260906061548 62 0.0 0.0 0.00 0.00 0.00 93 1013.2
20260906061326 63 0.0 0.0 0.00 0.00 0.00 93 1012.6
20260906061025 62 0.0 0.0 0.00 0.00 0.00 93 1013.2
20260906060858 63 0.0 0.0 0.00 0.00 0.00 93 1012.6
20260906060528 63 0.0 0.0 0.00 0.00 0.00 93 1013.2
20260906060339 63 0.0 0.0 0.00 0.00 0.00 93 1012.6
20260906060044 63 0.0 0.0 0.00 0.00 0.00 93 1013.1
20260906055822 63 0.0 0.0 0.00 0.00 0.00 93 1012.6
20260906055524 63 0.0 0.0 0.00 0.00 0.00 92 1013.1
20260906055319 63 0.0 0.0 0.00 0.00 0.00 93 1012.6
20260906055024 63 0.0 0.0 0.00 0.00 0.00 92 1013.0
20260906054829 63 0.0 0.0 0.00 0.00 0.00 93 1012.6
20260906054549 63 0.0 0.0 0.00 0.00 0.00 93 1013.1
20260906054325 64 0.0 0.0 0.00 0.00 0.00 93 1012.6
20260906054026 63 0.0 0.0 0.00 0.00 0.00 93 1013.1
20260906053821 64 0.0 0.0 0.00 0.00 0.00 93 1012.5
20260906053525 63 0.0 0.0 0.00 0.00 0.00 93 1013.0
20260906053334 64 0.0 0.0 0.00 0.00 0.00 93 1012.5
20260906053045 63 0.0 0.0 0.00 0.00 0.00 93 1013.1
20260906052828 64 0.0 0.0 0.00 0.00 0.00 93 1012.5
20260906052524 64 0.0 0.0 0.00 0.00 0.00 92 1013.1
20260906052323 64 0.0 0.0 0.00 0.00 0.00 93 1012.6
20260906052024 64 0.0 0.0 0.00 0.00 0.00 92 1013.2
20260906051823 64 0.0 0.0 0.00 0.00 0.00 93 1012.6
20260906051555 64 0.0 0.0 0.00 0.00 0.00 93 1013.3
20260906051320 64 0.0 0.0 0.00 0.00 0.00 93 1012.6
20260906051027 64 0.0 0.0 0.00 0.00 0.00 92 1013.3
20260906050815 65 0.0 0.0 0.00 0.00 0.00 93 1012.7
20260906050525 64 0.0 0.0 0.00 0.00 0.00 92 1013.4
20260906050348 65 0.0 0.0 0.00 0.00 0.00 93 1012.8
20260906050104 64 0.0 0.0 0.00 0.00 0.00 92 1013.3
20260906045821 65 0.0 0.0 0.00 0.00 0.00 93 1012.6
20260906045524 64 0.0 0.0 0.00 0.00 0.00 93 1013.3
20260906045313 65 0.0 0.0 0.00 0.00 0.00 93 1012.7
20260906045025 65 0.0 0.0 0.00 0.00 0.00 92 1013.4
20260906044828 65 0.0 0.0 0.00 0.00 0.00 93 1012.8
20260906044553 65 0.0 0.0 0.00 0.00 0.00 92 1013.6
20260906044324 65 0.0 0.0 0.00 0.00 0.00 92 1012.9
20260906044026 65 0.0 0.0 0.00 0.00 0.00 92 1013.6
20260906043820 66 0.0 0.0 0.00 0.00 0.00 93 1013.0
20260906043524 65 0.0 0.0 0.00 0.00 0.00 92 1013.7
20260906043335 66 0.0 0.0 0.00 0.00 0.00 92 1013.0
20260906043045 65 0.0 0.0 0.00 0.00 0.00 92 1013.7
20260906042830 66 0.0 0.0 0.00 0.00 0.00 92 1013.1
20260906042525 66 0.0 0.0 0.00 0.00 0.00 91 1013.8
20260906042344 66 0.0 0.0 0.00 0.00 0.00 92 1013.1
20260906042025 66 0.0 0.0 0.00 0.00 0.00 91 1013.7
20260906041819 66 0.0 0.0 0.00 0.00 0.00 92 1013.1
20260906041544 66 0.0 0.0 0.00 0.00 0.00 91 1013.7
20260906041316 66 0.0 0.0 0.00 0.00 0.00 92 1012.9
20260906041028 66 0.0 0.0 0.00 0.00 0.00 91 1013.6
20260906040830 67 0.0 0.0 0.00 0.00 0.00 92 1012.8
20260906040523 66 0.0 0.0 0.00 0.00 0.00 91 1013.6
20260906040346 67 0.0 0.0 0.00 0.00 0.00 92 1012.9
20260906040101 66 0.0 0.0 0.00 0.00 0.00 91 1013.5
20260906035821 67 0.0 0.0 0.00 0.00 0.00 91 1012.8
20260906035527 66 0.0 0.0 0.00 0.00 0.00 91 1013.6
20260906035317 67 0.0 0.0 0.00 0.00 0.00 91 1012.9
20260906035028 67 0.0 0.0 0.00 0.00 0.00 91 1013.6
20260906034813 67 0.0 0.0 0.00 0.00 0.00 91 1012.9
20260906034545 67 0.0 0.0 0.00 0.00 0.00 91 1013.6
20260906034329 67 0.0 0.0 0.00 0.00 0.00 91 1012.9
20260906034024 67 0.0 0.0 0.00 0.00 0.00 90 1013.7
20260906033825 67 0.0 0.0 0.00 0.00 0.00 91 1013.0
20260906033527 67 0.0 0.0 0.00 0.00 0.00 90 1013.7
20260906033322 67 0.0 0.0 0.00 0.00 0.00 91 1012.9
20260906033049 67 0.0 0.0 0.00 0.00 0.00 90 1013.7
20260906032821 68 0.0 0.0 0.00 0.00 0.00 91 1013.0
20260906032525 67 0.0 0.0 0.00 0.00 0.00 90 1013.8
20260906032315 68 0.0 0.0 0.00 0.00 0.00 90 1013.0
20260906032024 67 0.0 0.0 0.00 0.00 0.00 89 1013.8
20260906031828 68 0.0 0.0 0.00 0.00 0.00 90 1013.0
20260906031614 67 0.0 0.0 0.00 0.00 0.00 89 1013.8
20260906031319 68 0.0 0.0 0.00 0.00 0.00 90 1013.1
20260906031026 67 0.0 0.0 0.00 0.00 0.00 89 1013.8
20260906030815 68 0.0 0.0 0.00 0.00 0.00 89 1013.0
20260906030524 68 0.0 0.0 0.00 0.00 0.00 89 1013.7
20260906030330 68 0.0 0.0 0.00 0.00 0.00 90 1012.8
20260906030051 68 0.0 0.0 0.00 0.00 0.00 89 1013.5
20260906025826 68 0.0 0.0 0.00 0.00 0.00 89 1012.7
20260906025524 68 0.0 0.0 0.00 0.00 0.00 89 1013.4
20260906025322 68 0.0 0.0 0.00 0.00 0.00 90 1012.7
20260906025024 68 0.0 0.0 0.00 0.00 0.00 89 1013.5
20260906024834 68 0.0 0.0 0.00 0.00 0.00 89 1012.8
20260906024551 68 0.0 0.0 0.00 0.00 0.00 88 1013.6
20260906024324 68 0.0 0.0 0.00 0.00 0.00 89 1012.8
20260906024025 68 0.0 0.0 0.00 0.00 0.00 88 1013.6
20260906023817 69 0.0 0.0 0.00 0.00 0.00 88 1012.8
20260906023524 68 0.0 0.0 0.00 0.00 0.00 88 1013.5
20260906023351 69 0.0 0.0 0.00 0.00 0.00 88 1012.8
20260906023044 68 0.0 0.0 0.00 0.00 0.00 87 1013.4
20260906022824 69 0.0 0.0 0.00 0.00 0.00 87 1012.7
20260906022528 68 0.0 0.0 0.00 0.00 0.00 86 1013.4
20260906022314 69 0.0 0.0 0.00 0.00 0.00 86 1012.7
20260906022025 69 0.0 0.0 0.00 0.00 0.00 86 1013.4
20260906021825 69 0.0 0.0 0.00 0.00 0.00 86 1012.7
20260906021544 69 0.0 0.0 0.00 0.00 0.00 85 1013.4
20260906021334 69 0.0 0.0 0.00 0.00 0.00 86 1012.6
20260906021023 69 0.0 0.0 0.00 0.00 0.00 85 1013.4
20260906020826 69 0.0 0.0 0.00 0.00 0.00 85 1012.7
20260906020524 69 0.0 0.0 0.00 0.00 0.00 84 1013.4
20260906020341 70 0.0 0.0 0.00 0.00 0.00 85 1012.7
20260906020051 69 0.0 0.0 0.00 0.00 0.00 85 1013.4
20260906015829 70 0.0 0.0 0.00 0.00 0.00 85 1012.7
20260906015525 69 0.0 0.0 0.00 0.00 0.00 86 1013.4
20260906015320 70 0.0 0.0 0.00 0.00 0.00 86 1012.6
20260906015026 69 0.0 0.0 0.00 0.00 0.00 86 1013.3
20260906014831 70 0.0 0.0 0.00 0.00 0.00 86 1012.5
20260906014615 70 0.0 0.0 0.00 0.00 0.00 86 1013.2
20260906014323 70 0.0 0.0 0.00 0.00 0.00 86 1012.5
20260906014027 70 0.0 0.0 0.00 0.00 0.00 86 1013.2
20260906013815 70 0.0 0.0 0.00 0.00 0.00 87 1012.5
20260906013525 70 0.0 0.0 0.00 0.00 0.00 87 1013.0
20260906013327 70 0.0 0.0 0.00 0.00 0.00 87 1012.4
20260906013049 70 0.0 0.0 0.00 0.00 0.00 87 1013.0
20260906012823 70 0.0 0.0 0.00 0.00 0.00 87 1012.3
20260906012524 69 0.0 0.0 0.00 0.00 0.00 86 1013.0
20260906012321 70 0.0 0.0 0.00 0.00 0.00 88 1012.3
20260906012024 69 0.0 0.0 0.00 0.00 0.00 88 1012.8
20260906011815 70 0.0 0.0 0.00 0.00 0.00 88 1012.1
20260906011545 69 0.0 0.0 0.00 0.00 0.00 88 1012.8
20260906011328 70 0.0 0.0 0.00 0.00 0.00 88 1012.1
20260906011023 70 0.0 0.0 0.00 0.00 0.00 88 1012.8
20260906010820 70 0.0 0.0 0.00 0.00 0.00 88 1012.1
20260906010524 70 0.0 0.0 0.00 0.00 0.00 88 1012.7
20260906010332 70 0.0 0.0 0.00 0.00 0.00 88 1012.0
20260906010050 70 0.0 0.0 0.00 0.00 0.00 88 1012.6
20260906005825 70 0.0 0.0 0.00 0.00 0.00 88 1011.9
20260906005525 70 0.0 0.0 0.00 0.00 0.00 88 1012.6
20260906005319 70 0.0 0.0 0.00 0.00 0.00 88 1011.9
20260906005025 70 0.0 0.0 0.00 0.00 0.00 88 1012.5
20260906004831 71 0.0 0.0 0.00 0.00 0.00 88 1011.8
20260906004541 70 0.0 0.0 0.00 0.00 0.00 87 1012.5
20260906004326 71 0.0 0.0 0.00 0.00 0.00 88 1011.9
20260906004027 70 0.0 0.0 0.00 0.00 0.00 87 1012.5
20260906003821 71 0.0 0.0 0.00 0.00 0.00 87 1011.8
20260906003526 70 0.0 0.0 0.00 0.00 0.00 86 1012.5
20260906003317 71 0.0 0.0 0.00 0.00 0.00 86 1011.8
20260906003045 71 0.0 0.0 0.00 0.00 0.00 86 1012.3
20260906002830 71 0.0 0.0 0.00 0.00 0.00 86 1011.7
20260906002525 71 0.0 0.0 0.00 0.00 0.00 85 1012.3
20260906002325 72 0.0 0.0 0.00 0.00 0.00 85 1011.8
20260906002024 71 0.0 0.0 0.00 0.00 0.00 84 1012.4
20260906001818 72 0.0 0.0 0.00 0.00 0.00 84 1011.8
20260906001544 72 0.0 0.0 0.00 0.00 0.00 83 1012.4
20260906001352 72 0.0 0.0 0.00 0.00 0.00 84 1011.8
20260906001027 72 0.0 0.0 0.00 0.00 0.00 84 1012.4
20260906000824 72 0.0 0.0 0.00 0.00 0.00 84 1011.7
20260906000525 72 0.0 0.0 0.00 0.00 0.00 83 1012.2
20260906000319 73 0.0 0.0 0.00 0.00 0.00 83 1011.6
20260906000044 72 0.0 0.0 0.00 0.00 0.00 83 1012.1
20260905235832 73 0.0 0.0 0.00 0.00 0.00 83 1011.5
20260905235525 73 0.0 0.0 0.00 0.00 0.00 82 1012.2
20260905235326 73 0.0 0.0 0.00 0.00 0.00 82 1011.5
20260905235027 73 0.0 0.0 0.00 0.00 0.00 81 1012.2
20260905234818 74 0.0 0.0 0.00 0.00 0.00 82 1011.6
20260905234546 73 0.0 0.0 0.00 0.00 0.00 81 1012.2
20260905234318 74 0.0 0.0 0.00 0.00 0.00 81 1011.4
20260905234026 74 0.0 0.0 0.00 0.00 0.00 80 1012.0
20260905233832 74 0.0 0.0 0.00 0.00 0.00 80 1011.3
20260905233528 74 0.0 0.0 0.00 0.00 0.00 79 1011.9
20260905233325 75 0.0 0.0 0.00 0.00 0.00 80 1011.2
20260905233047 74 0.0 0.0 0.00 0.00 0.00 79 1011.9
20260905232821 75 0.0 0.0 0.00 0.00 0.00 79 1011.2
20260905232525 75 0.0 0.0 0.00 0.00 0.00 78 1011.9
20260905232333 75 0.0 0.0 0.00 0.00 0.00 78 1011.1
20260905232024 75 0.0 0.0 0.00 0.00 0.00 78 1011.8
20260905231823 76 0.0 0.0 0.00 0.00 0.00 78 1011.1
20260905231547 75 0.0 0.0 0.00 0.00 0.00 78 1011.8
20260905231024 75 0.0 0.0 0.00 0.00 0.00 77 1011.7
20260905230815 76 77 0.0 0.0 0.00 0.00 0.00 77 1011.0
20260905230527 76 0 0.0 0.0 0.00 0.00 0.00 77 1011.8
20260905230330 76 77 0.0 0.0 0.00 0.00 0.00 77 1011.1
20260905230045 76 0 0.0 0.0 0.00 0.00 0.00 77 1011.7
20260905225822 76 77 0.0 0.0 0.00 0.00 0.00 77 1011.1
20260905225525 76 0 0.0 0.0 0.00 0.00 0.00 77 1011.7
20260905225317 76 76 0.0 0.0 0.00 0.00 0.00 77 1011.0
20260905225024 76 0 0.0 0.0 0.00 0.00 0.00 76 1011.7
20260905224833 77 76 0.0 0.0 0.00 0.00 0.00 75 1011.0
20260905224545 76 0 0.0 0.0 0.00 0.00 0.00 76 1011.6
20260905224324 77 76 0.0 0.0 0.00 0.00 0.00 77 1010.9
20260905224025 76 0 0.0 0.0 0.00 0.00 0.00 76 1011.4
20260905223833 77 76 0.0 0.0 0.00 0.00 0.00 77 1010.8
20260905223525 77 0 0.0 0.0 0.00 0.00 0.00 77 1011.5
20260905223324 77 76 0.0 0.0 0.00 0.00 0.00 76 1010.9
20260905223046 77 0 0.0 0.0 0.00 0.00 0.00 76 1011.6
20260905222816 77 76 0.0 0.0 0.00 0.00 0.00 76 1011.0
20260905222525 77 0 0.0 0.0 0.00 0.00 0.00 76 1011.6
20260905222327 77 76 0.0 0.0 0.00 0.00 0.00 77 1010.9
20260905222024 77 0 0.0 2.0 0.00 0.00 0.00 76 1011.5
20260905221823 77 76 0.0 2.0 0.00 0.00 0.00 75 1010.8
20260905221605 77 0 0.0 2.0 0.00 0.00 0.00 74 1011.4
20260905221354 78 76 0.0 2.0 0.00 0.00 0.00 74 1010.8
20260905221025 77 0 0.0 0.0 0.00 0.00 0.00 74 1011.4
20260905220844 78 70 0.0 0.0 0.00 0.00 0.00 75 1010.7
20260905220524 77 0 0.0 0.0 0.00 0.00 0.00 74 1011.4
20260905220334 78 70 0.0 0.0 0.00 0.00 0.00 75 1010.8
20260905220046 78 0 0.0 0.0 0.00 0.00 0.00 74 1011.3
20260905215825 78 70 0.0 0.0 0.00 0.00 0.00 73 1010.7
20260905215524 78 0 0.0 0.0 0.00 0.00 0.00 72 1011.2
20260905215317 78 70 0.0 0.0 0.00 0.00 0.00 71 1010.6
20260905215027 78 0 0.0 0.0 0.00 0.00 0.00 72 1011.2
20260905214832 78 70 0.0 0.0 0.00 0.00 0.00 72 1010.6
20260905214554 78 0 0.0 1.0 0.00 0.00 0.00 72 1011.2
20260905214326 79 70 0.0 1.0 0.00 0.00 0.00 71 1010.6
20260905214025 78 0 0.0 1.0 0.00 0.00 0.00 71 1011.1
20260905213819 79 19 0.0 0.0 0.00 0.00 0.00 72 1010.6
20260905213527 78 0 0.0 2.0 0.00 0.00 0.00 71 1011.1
20260905213352 78 79 0.0 0.0 0.00 0.00 0.00 72 1010.5
20260905213056 78 0 0.0 2.0 0.00 0.00 0.00 73 1011.0
20260905212826 78 79 0.0 2.0 0.00 0.00 0.00 73 1010.4
20260905212524 78 0 0.0 2.0 0.00 0.00 0.00 72 1010.9
20260905212322 78 83 0.0 1.0 0.00 0.00 0.00 72 1010.4
20260905212026 78 0 0.0 0.0 0.00 0.00 0.00 75 1010.9
20260905211816 78 82 0.0 0.0 0.00 0.00 0.00 75 1010.3
20260905211559 78 0 0.0 0.0 0.00 0.00 0.00 72 1010.9
20260905211327 78 82 0.0 0.0 0.00 0.00 0.00 74 1010.3
20260905211025 78 0 0.0 0.0 0.00 0.00 0.00 74 1010.7
20260905210817 78 81 0.0 0.0 0.00 0.00 0.00 74 1010.2
20260905210525 78 0 0.0 0.0 0.00 0.00 0.00 74 1010.7
20260905210330 78 81 0.0 0.0 0.00 0.00 0.00 75 1010.2
20260905210053 78 0 0.0 0.0 0.00 0.00 0.00 76 1010.7
20260905205821 78 81 0.0 0.0 0.00 0.00 0.00 75 1010.2
20260905205524 78 0 0.0 0.0 0.00 0.00 0.00 76 1010.8
20260905205332 78 81 0.0 0.0 0.00 0.00 0.00 74 1010.3
20260905205031 78 0 0.0 0.0 0.00 0.00 0.00 76 1010.8
20260905204845 78 81 0.0 0.0 0.00 0.00 0.00 76 1010.3
20260905204547 78 0 0.0 0.0 0.00 0.00 0.00 74 1010.8
20260905204318 78 81 0.0 0.0 0.00 0.00 0.00 74 1010.3
20260905204027 78 0 0.0 0.0 0.00 0.00 0.00 73 1010.8
20260905203831 78 81 0.0 0.0 0.00 0.00 0.00 75 1010.3
20260905203528 78 0 0.0 0.0 0.00 0.00 0.00 73 1010.8
20260905203324 78 81 0.0 0.0 0.00 0.00 0.00 75 1010.2